Weather History for KROS - January, 2014

Change the Weather History Date:

Thursday, January 2, 2014

  Actual Average (KCBG) Record (KCBG)
Temperature  
Mean Temperature -11 °F -  
Max Temperature 0 °F 21 °F 40 °F (1964)
Min Temperature -22 °F 1 °F -28 °F (1979)
Degree Days  
Heating Degree Days 76    
Moisture  
Dew Point -21 °F    
Average Humidity 67    
Maximum Humidity 79    
Minimum Humidity 43    
Precipitation  
Precipitation 0.00 in - - ()
Sea Level Pressure  
Sea Level Pressure 30.43 in    
Wind  
Wind Speed 0 mph (WNW)    
Max Wind Speed 4 mph    
Max Gust Speed -    
Visibility 10 miles    
Events      
Averages and records for this station are not official NWS values.
T = Trace of Precipitation, MM = Missing Value Source: NWS Daily Summary

Daily Weather History Graph

Daily Weather History Graph

Search for Another Location

Airport or City:

Trip Planner

Search our weather history database for the weather conditions in past years. The results will help you decide how hot, cold, wet, or windy it might be!

Date:

Astronomy

Jan. 02, 2014 Rise Set
Actual Time 7:52 AM CST 4:39 PM CST
Civil Twilight 7:18 AM CST 5:13 PM CST
Nautical Twilight 6:40 AM CST 5:51 PM CST
Astronomical Twilight 6:04 AM CST 6:27 PM CST
Moon 8:28 AM CST (1/2) 6:44 PM CST (1/2)
Length of Visible Light 9h 55m
Length of Day
8h 46m
Waxing Crescent, 3% of the Moon is Illuminated
Jan 2
Waxing Crescent
Jan 7
First Quarter
Jan 15
Full
Jan 23
Last Quarter
Jan 30
New

Hourly Weather History & Observations

Time (CST) Temp. Windchill Dew Point Humidity Pressure Visibility Wind Dir Wind Speed Gust Speed Precip Events Conditions
12:15 AM -8.3 °F - -17.1 °F 65% 30.43 in 10.0 mi Calm Calm - N/A   Overcast
12:35 AM -9.0 °F - -17.5 °F 66% 30.43 in 10.0 mi Calm Calm - N/A   Mostly Cloudy
12:55 AM -9.9 °F - -18.4 °F 66% 30.42 in 10.0 mi Calm Calm - N/A   Scattered Clouds
1:15 AM -10.7 °F - -18.6 °F 68% 30.42 in 10.0 mi Calm Calm - N/A   Scattered Clouds
1:35 AM -11.9 °F - -19.5 °F 69% 30.42 in 10.0 mi Calm Calm - N/A   Mostly Cloudy
1:55 AM -13.2 °F - -20.4 °F 70% 30.42 in 10.0 mi Calm Calm - N/A   Scattered Clouds
2:15 AM -14.3 °F - -20.2 °F 75% 30.42 in 10.0 mi Calm Calm - N/A   Mostly Cloudy
2:35 AM -14.4 °F - -20.6 °F 74% 30.43 in 10.0 mi Calm Calm - N/A   Mostly Cloudy
2:55 AM -13.9 °F - -19.7 °F 75% 30.43 in 10.0 mi Calm Calm - N/A   Scattered Clouds
3:15 AM -15.0 °F - -20.2 °F 77% 30.42 in 10.0 mi Calm Calm - N/A   Scattered Clouds
3:35 AM -14.8 °F - -20.2 °F 77% 30.42 in 10.0 mi Calm Calm - N/A   Scattered Clouds
3:55 AM -17.1 °F - -22.7 °F 76% 30.42 in 10.0 mi Calm Calm - N/A   Scattered Clouds
4:15 AM -18.0 °F - -23.4 °F 76% 30.42 in 10.0 mi Calm Calm - N/A   Mostly Cloudy
4:35 AM -17.7 °F - -23.1 °F 76% 30.42 in 10.0 mi Calm Calm - N/A   Mostly Cloudy
4:55 AM -16.8 °F - -21.8 °F 78% 30.42 in 10.0 mi Calm Calm - N/A   Mostly Cloudy
5:15 AM -15.9 °F - -21.1 °F 77% 30.43 in 10.0 mi Calm Calm - N/A   Scattered Clouds
5:35 AM -20.0 °F - -26.7 °F 71% 30.43 in 10.0 mi Calm Calm - N/A   Scattered Clouds
5:55 AM -18.4 °F - -23.4 °F 78% 30.43 in 10.0 mi Calm Calm - N/A   Mostly Cloudy
6:15 AM -20.4 °F - -26.3 °F 74% 30.43 in 10.0 mi Calm Calm - N/A   Scattered Clouds
6:35 AM -19.5 °F - -24.7 °F 77% 30.44 in 10.0 mi Calm Calm - N/A   Scattered Clouds
6:55 AM -20.2 °F - -25.6 °F 76% 30.44 in 10.0 mi Calm Calm - N/A   Mostly Cloudy
7:15 AM -19.7 °F - -25.2 °F 75% 30.45 in 10.0 mi Calm Calm - N/A   Scattered Clouds
7:35 AM -20.6 °F - -26.1 °F 75% 30.45 in 10.0 mi Calm Calm - N/A   Scattered Clouds
7:55 AM -20.6 °F - -26.1 °F 75% 30.45 in 10.0 mi Calm Calm - N/A   Mostly Cloudy
8:15 AM -22.0 °F - -27.4 °F 76% 30.46 in 10.0 mi Calm Calm - N/A   Scattered Clouds
8:35 AM -18.8 °F - -24.0 °F 77% 30.46 in 10.0 mi Calm Calm - N/A   Scattered Clouds
8:55 AM -17.7 °F - -23.1 °F 76% 30.46 in 10.0 mi Calm Calm - N/A   Scattered Clouds
9:15 AM -15.2 °F - -20.6 °F 77% 30.47 in 10.0 mi Calm Calm - N/A   Clear
9:35 AM -14.4 °F - -20.4 °F 75% 30.47 in 10.0 mi Calm Calm - N/A   Scattered Clouds
9:55 AM -12.8 °F - -19.7 °F 72% 30.47 in 10.0 mi Calm Calm - N/A   Clear
10:15 AM -12.1 °F - -20.2 °F 67% 30.48 in 10.0 mi Calm Calm - N/A   Clear
10:35 AM -10.7 °F - -20.2 °F 63% 30.48 in 10.0 mi Calm Calm - N/A   Clear
10:55 AM -9.6 °F -18.8 °F -19.8 °F 61% 30.49 in 10.0 mi WNW 3.5 mph - N/A   Clear
11:15 AM -8.7 °F - -19.8 °F 58% 30.48 in 10.0 mi Calm Calm - N/A   Scattered Clouds
11:35 AM -7.4 °F -16.3 °F -19.8 °F 55% 30.48 in 10.0 mi WNW 3.5 mph - N/A   Scattered Clouds
11:55 AM -6.9 °F - -19.7 °F 54% 30.47 in 10.0 mi Calm Calm - N/A   Clear
12:15 PM -5.8 °F - -19.5 °F 52% 30.47 in 10.0 mi Calm Calm - N/A   Clear
12:35 PM -5.1 °F - -19.1 °F 51% 30.46 in 10.0 mi Calm Calm - N/A   Scattered Clouds
12:55 PM -4.4 °F -12.8 °F -19.1 °F 49% 30.45 in 10.0 mi NW 3.5 mph - N/A   Clear
1:14 PM -3.5 °F - -18.8 °F 48% 30.45 in 10.0 mi Calm Calm - N/A   Clear
1:35 PM -2.6 °F - -19.1 °F 45% 30.44 in 10.0 mi Calm Calm - N/A   Clear
1:55 PM -2.2 °F - -19.1 °F 45% 30.44 in 10.0 mi Calm Calm - N/A   Scattered Clouds
2:15 PM -1.8 °F - -18.8 °F 45% 30.44 in 10.0 mi Calm Calm - N/A   Scattered Clouds
2:35 PM -1.5 °F - -18.4 °F 45% 30.45 in 10.0 mi Calm Calm - N/A   Scattered Clouds
2:55 PM -1.3 °F - -18.6 °F 44% 30.45 in 10.0 mi Calm Calm - N/A   Scattered Clouds
3:15 PM -0.6 °F - -18.4 °F 43% 30.44 in 10.0 mi Calm Calm - N/A   Scattered Clouds
3:35 PM -1.8 °F - -18.8 °F 45% 30.43 in 10.0 mi Calm Calm - N/A   Scattered Clouds
3:54 PM -1.8 °F - -18.6 °F 45% 30.45 in 10.0 mi Calm Calm - N/A   Scattered Clouds
4:15 PM -1.7 °F - -18.4 °F 45% 30.45 in 10.0 mi Calm Calm - N/A   Scattered Clouds
4:35 PM -3.3 °F - -18.9 °F 47% 30.44 in 10.0 mi Calm Calm - N/A   Scattered Clouds
4:54 PM -5.6 °F - -19.1 °F 52% 30.44 in 10.0 mi Calm Calm - N/A   Scattered Clouds
5:15 PM -8.0 °F - -19.3 °F 58% 30.44 in 10.0 mi Calm Calm - N/A   Mostly Cloudy
5:35 PM -9.9 °F - -19.7 °F 62% 30.44 in 10.0 mi Calm Calm - N/A   Mostly Cloudy
5:55 PM -11.0 °F - -19.5 °F 66% 30.43 in 10.0 mi Calm Calm - N/A   Mostly Cloudy
6:15 PM -10.8 °F - -18.9 °F 67% 30.43 in 10.0 mi Calm Calm - N/A   Mostly Cloudy
6:35 PM -12.3 °F - -19.5 °F 70% 30.43 in 10.0 mi Calm Calm - N/A   Mostly Cloudy
6:54 PM -13.2 °F - -19.1 °F 75% 30.43 in 10.0 mi Calm Calm - N/A   Mostly Cloudy
7:15 PM -13.4 °F - -18.8 °F 77% 30.42 in 10.0 mi Calm Calm - N/A   Scattered Clouds
7:35 PM -12.8 °F - -18.9 °F 74% 30.41 in 10.0 mi Calm Calm - N/A   Mostly Cloudy
7:55 PM -15.7 °F - -21.5 °F 75% 30.41 in 10.0 mi Calm Calm - N/A   Mostly Cloudy
8:15 PM -17.1 °F - -22.7 °F 76% 30.41 in 10.0 mi Calm Calm - N/A   Scattered Clouds
8:35 PM -17.0 °F - -21.8 °F 79% 30.41 in 10.0 mi Calm Calm - N/A   Mostly Cloudy
8:54 PM -15.3 °F - -20.4 °F 78% 30.40 in 10.0 mi Calm Calm - N/A   Scattered Clouds
9:15 PM -18.4 °F - -23.6 °F 77% 30.39 in 10.0 mi Calm Calm - N/A   Scattered Clouds
9:35 PM -19.8 °F - -25.4 °F 75% 30.38 in 10.0 mi Calm Calm - N/A   Mostly Cloudy
9:54 PM -19.8 °F - -25.1 °F 77% 30.38 in 10.0 mi Calm Calm - N/A   Scattered Clouds
10:15 PM -19.5 °F - -24.7 °F 77% 30.38 in 10.0 mi Calm Calm - N/A   Mostly Cloudy
10:35 PM -21.3 °F - -27.0 °F 75% 30.36 in 10.0 mi Calm Calm - N/A   Scattered Clouds
10:55 PM -20.6 °F - -26.0 °F 76% 30.35 in 10.0 mi Calm Calm - N/A   Scattered Clouds
11:15 PM -21.1 °F - -26.7 °F 75% 30.34 in 10.0 mi Calm Calm - N/A   Scattered Clouds
11:34 PM -20.7 °F - -26.1 °F 76% 30.33 in 10.0 mi Calm Calm - N/A   Scattered Clouds
11:55 PM -17.3 °F - -22.9 °F 76% 30.33 in 10.0 mi Calm Calm - N/A   Scattered Clouds